Regional Weather Roundup
Issued by NWS Wakefield, VA

Home | Current Version | Previous Version | Text Only | Print | Product List | Glossary Off
Versions: 1 2 3 4 5 6 7 8 9 10 11 12 13 14 15 16 17 18 19 20 21 22 23 24 25 26 27

000
ASUS41 KAKQ 201016
RWRAKQ

REGIONAL WEATHER ROUNDUP
NATIONAL WEATHER SERVICE WAKEFIELD VA
600 AM EDT FRI OCT 20 2017

Note: "fair" indicates few or no clouds below 12,000 feet with no
significant weather and/or obstructions to visibility. * = Denotes
station may not report precipitation (e.g., rain,snow,etc.),
thunder or fog.

VAZ042-051-052>054-056-201100-
NORTHERN VIRGINIA

CITY           SKY/WX    TMP DP  RH WIND       PRES   REMARKS
WASH NATIONAL  FAIR      56  53  90 CALM      30.19R
DULLES         FAIR      47  46  97 CALM      30.20R
FORT BELVOIR   FAIR      46  45  96 CALM      30.19R
QUANTICO       FAIR      50  49  96 NW8       30.21R
FREDERICKSBRG* FAIR      46  46 100 CALM      30.19R
STAFFORD*      FAIR      42  42 100 CALM      30.24R
WARRENTON      FAIR      42  39  90 CALM      30.20R
CULPEPER*      FAIR      43  42  95 CALM      30.22R
MANASSAS*      FAIR      43  42  97 CALM      30.21R
LEESBURG*      FAIR      50  46  87 CALM      30.21R
WINCHESTER     FAIR      46  41  81 W3        30.21R
FRONT ROYAL*   FAIR      50  43  76 MISG      30.21R
LURAY*         FAIR      45  43  93 CALM      30.24R
$$

VAZ048-049-060>072-079>083-201100-
CENTRAL AND SOUTH CENTRAL VIRGINIA

CITY           SKY/WX    TMP DP  RH WIND       PRES   REMARKS
RICHMOND       FAIR      47  44  90 CALM      30.20R
CHESTERFIELD*  NOT AVBL
PETERSBURG*    FAIR     N/A N/A N/A CALM      30.21R
HANOVER        FAIR      45  45 100 CALM      30.22R
TAPPAHANNOCK*  FAIR     N/A N/A N/A CALM      30.20R
QUINTON*       FAIR      44  44 100 CALM      30.20R
CHARLOTTSVILLE FAIR      50  45  83 S5        30.21R
GORDONSVILLE*  FAIR      44  44 100 CALM      30.20R
ORANGE*        FAIR      43  43 100 CALM      30.21R
LOUISA*        FAIR      43  41  93 CALM      30.20R
BUMPASS*       FAIR      46  46 100 CALM      30.20R
FARMVILLE*     FAIR      40  40 100 CALM      30.21R
CREWE*         FAIR      41  41 100 CALM      30.21R
FORT PICKETT*  FAIR      46  46 100 NW3       30.20R
CHASE CITY*    FAIR      44  44 100 CALM      30.21R
CLARKSVILLE*   FAIR      41  41 100 CALM      30.22R
SOUTH HILL*    FAIR      43  43 100 CALM      30.26R
LAWRENCEVILLE* FAIR      44  43  95 CALM      30.20R
EMPORIA*       FAIR      41  41 100 CALM      30.21R
$$

VAZ088>098-201100-
SOUTHEAST VIRGINIA

CITY           SKY/WX    TMP DP  RH WIND       PRES   REMARKS
NORFOLK        FAIR      52  51  97 SW6       30.19R
VIRGINIA BEACH FAIR      51  49  92 CALM      30.18R
NORFOLK NAVAL  FAIR      54  51  90 CALM      30.20R
WEST POINT*    FAIR      42  42 100 CALM      30.21R
SALUDA*        FAIR      47  47 100 CALM      30.19R
NEWPORT NEWS   FAIR      49  48  97 CALM      30.19R
LANGLEY AFB    CLEAR     56  56  98 NW8       30.18S
FORT EUSTIS    FAIR      50  47  90 CALM      30.17R
WILLIAMSBURG*  FAIR      50  50 100 NW3       30.21R
HR EXEC AP*    NOT AVBL
FRANKLIN*      FAIR      43  41  93 CALM      30.20R
US460-WAKEFLD  FAIR      46  45  96 CALM      30.20R
$$

VAZ020-022-025-037-045-201100-
WEST CENTRAL AND SOUTHWEST VIRGINIA

CITY           SKY/WX    TMP DP  RH WIND       PRES   REMARKS
STAUNTON*      FAIR      39  38  95 CALM      30.27R
WAYNESBORO*    FAIR      45  42  89 CALM      30.25R
HOT SPRINGS VA FAIR      51  40  64 NW14      30.30R
LYNCHBURG      FAIR      45  43  93 CALM      30.23R
DANVILLE       FAIR      43  43 100 CALM      30.23R
SOUTH BOSTON*  FAIR      40  39  95 CALM      30.22R
MARTINSVILLE   FAIR      39  39  98 CALM      30.27R
ROANOKE        FAIR      51  43  74 NW7       30.27R
BLACKSBURG     FAIR      45  42  89 CALM      30.32R
DUBLIN*        FAIR      46  42  83 CALM      30.31R
MARION*        FAIR      45  39  79 CALM      30.34R
HILLSVILLE*    FAIR      53  36  51 CALM      30.29R
RICHLANDS*     FAIR      49  19  31 CALM      30.32S
WISE*          FAIR      52  41  66 CALM      30.33R
ABINGDON*      FAIR      45  42  89 CALM      30.31S
$$

MDZ021>025-VAZ099-100-201100-
SOUTHERN MARYLAND AND THE DELMARVA PENINSULA

CITY           SKY/WX    TMP DP  RH WIND       PRES   REMARKS
PATUXENT RIVER FAIR      49  48  97 N6        30.18R
BAY BRIDGE APT FAIR      61  48  63 NW5       30.17R
LEONARDTOWN    NOT AVBL
DOVER          CLEAR     52  50  93 CALM      30.15R
GEORGETOWN     FAIR      51  49  92 CALM      30.17R
EASTON         MOCLDY    52  50  93 CALM      30.21R
CAMBRIDGE      CLEAR     46  46 100 CALM      30.17R
SALISBURY      FAIR      47  45  93 CALM      30.17R
OCEAN CITY     FAIR      54  53  97 NW6       30.17R FOG
WALLOPS ISLAND FAIR      56  55  97 W7        30.18R
ACCOMACK*      FOG       50  50  99 W5        30.18R VSB 1/2
$$

NCZ012>017-030>032-201100-
NORTH CENTRAL AND EASTERN NORTH CAROLINA

CITY           SKY/WX    TMP DP  RH WIND       PRES   REMARKS
ROANOKE RAPIDS FAIR      45  45 100 CALM      30.20R
RALEIGH        FAIR      46  45  96 CALM      30.23R
ELIZABETH CITY FOG       53  53 100 CALM      30.20R VSB 1/4
AHOSKIE*       FAIR      43  43 100 CALM      30.20R
EDENTON*       MOCLDY    54  53  95 CALM      30.20S FOG
CURRITUCK*     FAIR      50  50  99 CALM      30.20R FOG
KILL DEVIL HLS FAIR     N/A N/A N/A CALM      30.18R
MANTEO         FAIR     N/A N/A N/A CALM      30.20R
CAPE HATTERAS  FAIR      58  58 100 NW3       30.19S
TARBORO*       NOT AVBL
GOLDSBORO      FAIR      48  46  93 CALM      30.20R FOG
WASHINGTON     FAIR      51  50  97 CALM      30.21S FOG
GREENVILLE     FOG       46  46 100 CALM      30.21S VSB 1/4
NEW BERN       FAIR      53  53 100 CALM      30.22R FOG
WILMINGTON     FAIR      54  53  97 CALM      30.22R
$$

VAZ048-201100-
ELSEWHERE

CITY           SKY/WX    TMP DP  RH WIND       PRES   REMARKS
HARRISBURG PA  FAIR      49  47  93 E3        30.17R
BALTIMORE      FAIR      51  47  86 W6        30.18R
ANNAPOLIS      FAIR      57  50  77 W3        30.17R
ANDREWS AFB    FAIR      53  45  75 NW6       30.18R
PHILADELPHIA   FAIR      59  46  62 W9        30.15R
HENDERSON NC   FAIR      42  40  94 CALM      30.21R
GREENSBORO     FAIR      48  45  89 CALM      30.23R
ROCKY MOUNT    FAIR      44  44 100 CALM      30.21R
$$

VAZ100-201100-
MARINE

STATION/POSITION TIME  TEMP    WIND        PRES    WAVE   SWELL
                       AIR SEA DIR/SP/G            HT/PER HT/PER
                 (UTC) (F)     (DEG/KT/KT) (MB)    (FT/S) (FT/S)
BRANDYWINE LGT   0942   62     310/  6/  9 1021.4R
CAPE MAY NJ      0942   62 64  300/  7/  9 1020.5R
LEWES DE         0942   60 65  270/  8/ 11 1020.9R
15NM E FENWICK I 0950   66 67  290/ 10/ 12 1021.2R   3/ 9   2/ 9
OCEAN-CITY-INLET 0942   58 64  310/  5/  7 1021.5R
WACHAPREAGUE VA  0942   56 64   CALM  /  2 1021.8R
THOMAS POINT MD  1000   62 67  300/ 13/ 14   N/A
GOOSES REEF MD   1000   67 68   10/ 12/ 14 1022.5    1/ 2
COVE POINT MD    0942   67     350/ 13/ 15 1022.3R
SOLOMONS ISLAND  0942   60 69  360/  4/  5 1021.4R
BISHOPS HEAD MD  0942   61 64  300/  2/  2 1021.9R
PINEY POINT MD   0936          270/  5/  7   N/A
POTOMAC MD       1000   63 68  290/  6/  6 1021.5    0
CAMBRIDGE MD     0942   53 67              1022.3R
LEWISETTA VA     0942   55 65  270/  5/  6 1021.9R
RAPPAHANNOCK LGT 0948          290/  9/ 10 1022.6R
STINGRAY PT      1000   61 69  300/  6/  8 1022.6    0
YORK RVR RNG VA  0942   63     300/  6/  8 1022.5R
YORKTOWN VA      0936   59 69  270/  4/  5 1021.7R
JAMESTOWN VA     1000      69  320/  6/ 10   N/A     0
DOMINION TERM VA 0936   61     270/  6/  7 1022.2R
KIPTOPEKE VA     0936      68  290/  7/  8   N/A
CAPE HENRY VA    0936   59     240/  7/  9   N/A
WILLOUBY STN VA  0936   63     260/  7/  8 1021.9R
S CRANEY ISL VA  0936   57     230/  1/  3 1021.9R
CAPE HENRY BUOY  1000      69                N/A     3/ 9
1ST LANDING BUOY 1000   63 69              1022.1    1/ 4
CAPE CHARLES BUO 0951      70                N/A     2/ 9
64NM E OF VA BCH 0950   68 67  260/  8/ 10 1022.3R   3/ 9   3/ 9
DUCK PIER NC     0936   64 69  250/  6/  7 1021.8S
44100 DUCK FRF   0935      70                N/A     3/ 9
44056 DUCK FRF   1000      69                N/A     3/ 8
OREGON INLET NC  0936   62 68  300/  1/  1 1022.2S
HATTERAS NC      0936   66 70  310/  5/  5 1022.1S
DIAMOND SHLS NC  0950   73 81  340/  8/ 10 1022.0R   3/ 8   3/ 8
CAPE LOOKOUT NC  1000   65     340/  6/  7 1022.5R
$$




USA.gov is the U.S. government's official web portal to all federal, state and local government web resources and services.